Queretaro Airport,

6:02 AM CST on December 13, 2017 (GMT -0600)
Queretaro Airport

Weather History for MMQT - January, 2013

Change the Weather History Date:

Tuesday, January 8, 2013

  Actual Average Record
Temperature  
Mean Temperature 60 °F -  
Max Temperature 69 °F 70 °F 77 °F (2012)
Min Temperature 50 °F 44 °F 24 °F (2006)
Degree Days  
Heating Degree Days 6    
Growing Degree Days 10 (Base 50)    
Moisture  
Dew Point 43 °F    
Average Humidity 57    
Maximum Humidity 82    
Minimum Humidity 18    
Precipitation  
Precipitation 0.00 in - - ()
Sea Level Pressure  
Sea Level Pressure 30.07 in    
Wind  
Wind Speed 5 mph ()    
Max Wind Speed 17 mph    
Max Gust Speed -    
Visibility 7.5 miles    
Events Rain    
Averages and records for this station are not official NWS values.
T = Trace of Precipitation, MM = Missing Value Source: Averaged Metar Reports

Daily Weather History Graph

Daily Weather History Graph

Search for Another Location

Airport or City:

Trip Planner

Search our weather history database for the weather conditions in past years. The results will help you decide how hot, cold, wet, or windy it might be!

Date:

Astronomy

Jan. 08, 2013 Rise Set
Actual Time 7:18 AM CST 6:16 PM CST
Civil Twilight 6:55 AM CST 6:40 PM CST
Nautical Twilight 6:27 AM CST 7:07 PM CST
Astronomical Twilight 6:00 AM CST 7:34 PM CST
Moon 3:56 AM CST (1/8) 3:19 PM CST (1/8)
Length of Visible Light 11h 45m
Length of Day
10h 57m
Waning Crescent, 13% of the Moon is Illuminated
Jan 8
Waning Crescent
Jan 11
New
Jan 18
First Quarter
Jan 26
Full
Feb 3
Last Quarter

Hourly Weather History & Observations

Time (CST) Temp. Windchill Dew Point Humidity Pressure Visibility Wind Dir Wind Speed Gust Speed Precip Events Conditions
12:40 AM 53.6 °F - 42.8 °F 67% 30.20 in 7.0 mi Calm Calm - N/A   Scattered Clouds
1:45 AM 53.6 °F - 42.8 °F 67% 30.19 in 7.0 mi NNW 4.6 mph - N/A   Scattered Clouds
2:40 AM 58 °F - 47 °F 56% 29.77 in 6 mi East 2.2 mph - -   Partly Cloudy
2:45 AM 48.2 °F - 41.0 °F 76% 30.17 in 7.0 mi WNW 2.3 mph - N/A   Scattered Clouds
2:50 AM 56 °F - 46 °F 60% 29.83 in 3 mi West 11.2 mph - -   Mostly Cloudy
3:45 AM 46.4 °F 44.3 °F 41.0 °F 81% 30.16 in 7.0 mi SSW 4.6 mph - N/A   Scattered Clouds
4:45 AM 46.4 °F 44.3 °F 41.0 °F 81% 30.16 in 7.0 mi SSW 4.6 mph - N/A   Scattered Clouds
5:40 AM 44.6 °F - 39.2 °F 81% 30.17 in 7.0 mi Calm Calm - N/A   Scattered Clouds
5:45 AM 53 °F - 45 °F 65% 29.78 in 6 mi SE 2.2 mph - -   Scattered Clouds
6:45 AM 44.6 °F - 39.2 °F 81% 30.16 in 7.0 mi Calm Calm - N/A   Scattered Clouds
7:45 AM 42.8 °F 39.3 °F 37.4 °F 81% 30.16 in 7.0 mi East 5.8 mph - N/A   Scattered Clouds
8:45 AM 50.0 °F - 42.8 °F 76% 30.20 in 6.0 mi Calm Calm - N/A   Mostly Cloudy
9:45 AM 60.8 °F - 42.8 °F 52% 30.22 in 6.0 mi Calm Calm - N/A   Mostly Cloudy
10:45 AM 66.2 °F - 42.8 °F 43% 30.22 in 6.0 mi West 9.2 mph - N/A   Mostly Cloudy
11:40 AM 67 °F - 34 °F 18% 29.84 in 16 mi West 2.2 mph - -   Partly Cloudy
11:45 AM 69.8 °F - 41.0 °F 35% 30.20 in 6.0 mi WSW 9.2 mph - N/A   Mostly Cloudy
12:45 PM 66.2 °F - 42.8 °F 43% 30.18 in 6.0 mi WSW 11.5 mph - N/A   Overcast
1:45 PM 69.8 °F - 48.2 °F 46% 30.14 in 7.0 mi SW 11.5 mph - N/A   Overcast
2:45 PM 68.0 °F - 42.8 °F 40% 30.12 in 7.0 mi West 16.1 mph - N/A   Overcast
2:52 PM 67 °F - 47 °F 38% 29.75 in 12 mi West 6.7 mph - - Rain Light Drizzle
3:45 PM 66.2 °F - 42.8 °F 43% 30.11 in 7.0 mi WSW 11.5 mph - N/A   Overcast
4:45 PM 69.8 °F - 42.8 °F 38% 30.10 in 10.0 mi SSW 13.8 mph - N/A   Mostly Cloudy
5:45 PM 68 °F - 44 °F 30% 29.72 in 12 mi West 4.5 mph - -   Mostly Cloudy
5:45 PM 68.0 °F - 37.4 °F 33% 30.11 in 8.0 mi South 6.9 mph - N/A   Mostly Cloudy
6:45 PM 66.2 °F - 39.2 °F 37% 30.12 in 7.0 mi SSW 13.8 mph - N/A   Mostly Cloudy
7:45 PM 64.4 °F - 39.2 °F 40% 30.16 in 7.0 mi West 11.5 mph - N/A   Mostly Cloudy
8:45 PM 60.8 °F - 42.8 °F 52% 30.18 in 7.0 mi WNW 8.1 mph - N/A   Mostly Cloudy
8:55 PM 60 °F - 48 °F 55% 29.74 in 12 mi SW 4.5 mph - -   Partly Cloudy
9:45 PM 55.4 °F - 46.4 °F 72% 30.24 in 5.0 mi West 17.3 mph - N/A Rain Light Rain
10:45 PM 53.6 °F - 48.2 °F 82% 30.23 in 5.0 mi WNW 4.6 mph - N/A Rain Light Rain
11:45 PM 53.6 °F - 48.2 °F 82% 30.22 in 6.0 mi NE 4.6 mph - N/A   Mostly Cloudy
11:55 PM 59 °F - 48 °F 57% 29.79 in 12 mi SE 4.5 mph - -   Partly Cloudy